Погода в Источном

Россия / Республика Крым     45°54′03″N   34°01′09″E
темп.,
°C
ветер,
м/с
пор.,
м/с
влажн.,
%
обл.,
%
осадки,
мм/ч
давл.,
гПа
погр.,
м
18 апреля, вс
вс1800:00+7вюв357416 0.0 101988
03:00+7всв347483 0.0 101872
06:00+7всв4682100 0.0 1018119
09:00+10в56635 0.0 1018540
12:00+12в555416 0.0 1018796
15:00+13в557017 0.0 1017812
18:00+11в5679100 0.0 1017359
21:00+10вюв4685100 0.0 1018220
19 апреля, пн
пн1900:00+9в2484100 0.0 1017191
03:00+9всв3486100 0.0 1016164
06:00+9в4685100 0.0 1016207
09:00+10в577798 0.0 1016404
12:00+11в5774100 0.0 1015402
15:00+12в5767100 0.0 1014491
18:00+11в5774100 0.0 1013290
21:00+9в51087100 0.0 1012294
20 апреля, вт
вт2000:00+9всв61096100 2.8 1009338
03:00+9всв71198100 8.6 1005380
06:00+9в6998100 4.6 1002275
09:00+11ююз61191100 6.4 1000804
12:00+11ююз101379100 0.3 1000959
15:00+11ююз91378100 0.5 9991072
18:00+10з71193100 0.3 999550
21:00+9зсз101487100 0.8 1006921
21 апреля, ср
ср2100:00+10з9138490 0.5 1010630
03:00+8з61187100 0.5 1013337
06:00+7з4891100 0.0 1015198
09:00+10з466719 0.0 1017503
12:00+13з45545 0.0 1018945
15:00+15з45488 0.0 10181028
18:00+13з45577 0.0 1019417
21:00+9юз017571 0.0 102110
22 апреля, чт
чт2200:00+8ю2283100 0.0 102122
03:00+8ююз338893 0.0 102139
06:00+8ю2386100 0.0 102139
09:00+12ююз237292 0.0 1022368
12:00+14юз2360100 1.0 10231209
15:00+14ююв236293 2.3 1023951
18:00+13ююв227291 1.4 1023228
21:00+10ююв11835 2.0 102310